Iowa City, IA

6:25 AM CST on January 17, 2018 (GMT -0600)
Iowa City Municipal

Weather History for KIOW - September, 2014

Change the Weather History Date:

Wednesday, September 3, 2014

  Actual Average Record
Temperature  
Mean Temperature 71 °F 69 °F  
Max Temperature 84 °F 80 °F 96 °F (1960)
Min Temperature 57 °F 58 °F 42 °F (1952)
Degree Days  
Heating Degree Days 0 1  
Month to date heating degree days 0 3  
Since 1 July heating degree days 12 11  
Cooling Degree Days 6 5  
Month to date cooling degree days 18 15  
Year to date cooling degree days 734 837  
Growing Degree Days 20 (Base 50)    
Moisture  
Dew Point 63 °F    
Average Humidity 81    
Maximum Humidity 100    
Minimum Humidity 62    
Precipitation  
Precipitation 0.00 in 0.14 in 1.38 in (2011)
Month to date precipitation 0.23 0.46  
Year to date precipitation 27.66 26.61  
Sea Level Pressure  
Sea Level Pressure 29.95 in    
Wind  
Wind Speed 9 mph (SSE)    
Max Wind Speed 18 mph    
Max Gust Speed 24 mph    
Visibility 8 miles    
Events      
T = Trace of Precipitation, MM = Missing Value Source: NWS Daily Summary

Daily Weather History Graph

Daily Weather History Graph

Search for Another Location

Airport or City:

Trip Planner

Search our weather history database for the weather conditions in past years. The results will help you decide how hot, cold, wet, or windy it might be!

Date:

Astronomy

Sep. 03, 2014 Rise Set
Actual Time 6:34 AM CDT 7:36 PM CDT
Civil Twilight 6:05 AM CDT 8:04 PM CDT
Nautical Twilight 5:31 AM CDT 8:38 PM CDT
Astronomical Twilight 4:56 AM CDT 9:13 PM CDT
Moon 3:20 PM CDT (9/3) 12:26 AM CDT (9/3)
Length of Visible Light 13h 58m
Length of Day
13h 01m
Waxing Gibbous, 64% of the Moon is Illuminated
Sep 3
Waxing Gibbous
Sep 8
Full
Sep 15
Last Quarter
Sep 24
New
Oct 1
First Quarter

Hourly Weather History & Observations

Time (CDT) Temp. Heat Index Dew Point Humidity Pressure Visibility Wind Dir Wind Speed Gust Speed Precip Events Conditions
12:52 AM 61.0 °F - 59.0 °F 93% 29.99 in 10.0 mi Calm Calm - N/A   Clear
1:52 AM 61.0 °F - 60.1 °F 97% 29.99 in 10.0 mi Calm Calm - N/A   Clear
2:04 AM 59.0 °F - 59.0 °F 100% 29.99 in 1.8 mi Calm Calm - N/A   Clear
2:15 AM 57.9 °F - 57.9 °F 100% 29.99 in 0.8 mi Calm Calm - N/A   Clear
2:52 AM 57.9 °F - 57.9 °F 100% 29.98 in 0.8 mi Calm Calm - N/A   Clear
2:55 AM 59.0 °F - 57.9 °F 96% 29.99 in 1.2 mi Calm Calm - N/A   Clear
3:03 AM 57.9 °F - 57.9 °F 100% 29.99 in 10.0 mi Calm Calm - N/A   Clear
3:33 AM 59.0 °F - 57.9 °F 96% 29.99 in 2.5 mi Calm Calm - N/A   Clear
3:40 AM 60.1 °F - 59.0 °F 96% 29.99 in 10.0 mi Calm Calm - N/A   Clear
3:52 AM 60.1 °F - 59.0 °F 96% 29.98 in 10.0 mi Calm Calm - N/A   Clear
4:29 AM 57.9 °F - 57.0 °F 97% 29.99 in 1.8 mi Calm Calm - N/A   Clear
4:34 AM 57.9 °F - 57.9 °F 100% 29.99 in 3.0 mi Calm Calm - N/A   Clear
4:52 AM 59.0 °F - 57.9 °F 96% 29.98 in 7.0 mi Calm Calm - N/A   Partly Cloudy
5:13 AM 57.9 °F - 57.0 °F 97% 29.99 in 1.8 mi Calm Calm - N/A   Clear
5:25 AM 57.0 °F - 57.0 °F 100% 29.99 in 0.8 mi Calm Calm - N/A   Clear
5:34 AM 57.9 °F - 57.9 °F 100% 29.99 in 1.2 mi Calm Calm - N/A   Clear
5:38 AM 57.9 °F - 57.0 °F 97% 29.99 in 4.0 mi Calm Calm - N/A   Clear
5:52 AM 59.0 °F - 57.9 °F 96% 29.98 in 10.0 mi Calm Calm - N/A   Clear
6:52 AM 59.0 °F - 57.9 °F 96% 29.99 in 10.0 mi SE 3.5 mph - N/A   Clear
7:52 AM 62.1 °F - 61.0 °F 96% 29.99 in 10.0 mi Calm Calm - N/A   Clear
8:52 AM 66.0 °F - 63.0 °F 90% 30.00 in 10.0 mi South 6.9 mph - N/A   Scattered Clouds
9:06 AM 66.9 °F - 64.0 °F 90% 30.01 in 10.0 mi SSE 5.8 mph - N/A   Mostly Cloudy
9:45 AM 71.1 °F - 66.9 °F 87% 30.01 in 10.0 mi SSE 4.6 mph - N/A   Scattered Clouds
9:52 AM 71.1 °F - 66.9 °F 87% 30.00 in 10.0 mi SSE 6.9 mph - N/A   Partly Cloudy
10:52 AM 78.1 °F - 70.0 °F 76% 29.99 in 10.0 mi South 13.8 mph - N/A   Clear
11:52 AM 80.1 °F 82.3 °F 66.9 °F 64% 29.96 in 10.0 mi South 10.4 mph - N/A   Clear
12:52 PM 82.0 °F 84.9 °F 68.0 °F 62% 29.93 in 10.0 mi SSE 16.1 mph 21.9 mph N/A   Clear
1:52 PM 82.9 °F 85.8 °F 68.0 °F 60% 29.92 in 10.0 mi South 10.4 mph - N/A   Clear
2:52 PM 84.0 °F 89.0 °F 71.1 °F 65% 29.89 in 10.0 mi South 12.7 mph - N/A   Partly Cloudy
4:52 PM 82.9 °F 87.5 °F 71.1 °F 67% 29.86 in 10.0 mi SSE 15.0 mph 20.7 mph N/A   Clear
5:52 PM 82.0 °F 85.5 °F 69.1 °F 65% 29.86 in 10.0 mi South 12.7 mph - N/A   Clear
6:52 PM 79.0 °F - 66.9 °F 66% 29.85 in 10.0 mi South 12.7 mph - N/A   Mostly Cloudy
7:52 PM 77.0 °F - 68.0 °F 74% 29.84 in 10.0 mi South 12.7 mph 20.7 mph N/A   Scattered Clouds
8:52 PM 75.0 °F - 69.1 °F 82% 29.86 in 10.0 mi SSE 8.1 mph - N/A   Clear
9:52 PM 75.0 °F - 69.1 °F 82% 29.86 in 10.0 mi South 10.4 mph - N/A   Clear
10:52 PM 75.0 °F - 68.0 °F 79% 29.85 in 10.0 mi South 15.0 mph 24.2 mph N/A   Clear
11:52 PM 75.0 °F - 68.0 °F 79% 29.86 in 10.0 mi South 11.5 mph - N/A   Mostly Cloudy